2013 CO35

Initial reported observation by Mt. Lemmon Survey on 2013-02-05.
(Discoverer will be defined when the object is numbered. See this note on how discoverers are determined.)

Orbit

Orbit type: Apollo
Near-Earth Object
One opposition object seen prior.

Note: WebGL enabled browser required.

epoch2019-04-27.0
epoch JD2458600.5
perihelion date2019-07-01.38424
perihelion JD2458665.88424
argument of perihelion (°)118.12872
ascending node (°)317.29255
inclination (°)8.28298
eccentricity0.4670512
perihelion distance (AU)0.8950743
Tisserand w.r.t. Jupiter4.1
ΔV w.r.t. Earth (km/sec)6.2
semimajor axis (AU)1.6794754
mean anomaly (°)330.39149
mean daily motion (°/day)0.45283850
aphelion distance (AU)2.464
period (years)2.18
P-vector [x]0.24547063
P-vector [y]0.83120304
P-vector [z]0.49884434
Q-vector [x]-0.96446707
Q-vector [y]0.26127165
Q-vector [z]0.03924782
absolute magnitude25.3
phase slope0.15
uncertainty8
referenceMPO 253312
observations used11
oppositions1
arc length (days)3
first opposition used2013
last opposition used2013
residual rms (arc-secs)0.33
perturbers coarse indicatorM-v
perturbers precise indicator003Eh
first observation date used2013-02-05.0
last observation date used2013-02-08.0
computer nameMPCS
JD of orbit computation2456332.052352
perihelion JD uncertainty (days)6.4225E-02
argument of perihelion uncertainty (°)6.1820E-03
ascending node uncertainty (°)4.1101E-03
inclination uncertainty (°)5.8448E-02
eccentricity uncertainty 3.9499E-03
perihelion distance uncertainty (AU)5.0674E-04
Minimum Orbit Intersection Distances (in AU)
for orbit epoch: 2458600.5, reference: MPO253312
Mercury0.58869
Venus0.19807
Earth0.03808
Mars0.11418
Jupiter2.86403
Saturn7.60932
Uranus16.2862
Neptune27.834

Observations

13 total observations over interval: 2013 02 01.434215 – 2013 02 08.34292
These data are available for download (format description).

Date (UT) J2000 RA J2000 Dec Magn Location Ref
2013 02 01.434215 08 39 37.902 +32 05 15.74 20.0 G F51 – Pan-STARRS 1, Haleakala MPS 1012713
2013 02 05.24343 08 50 32.56 +20 40 34.1 20.2 V G96 – Mt. Lemmon Survey MPS 454013
2013 02 05.25052 08 50 33.14 +20 39 37.4 20.4 V G96 – Mt. Lemmon Survey MPS 454013
2013 02 05.25773 08 50 33.72 +20 38 39.4 20.5 V G96 – Mt. Lemmon Survey MPS 454013
2013 02 05.26486 08 50 34.29 +20 37 42.9 20.8 V G96 – Mt. Lemmon Survey MPS 454013
2013 02 05.339444 08 50 45.099 +20 28 03.44 21.1 G F51 – Pan-STARRS 1, Haleakala MPS 1012713
2013 02 06.15963 08 52 13.65 +18 44 41.4 20.5 R H36 – Sandlot Observatory, Scranton MPS 454013
2013 02 06.17438 08 52 14.73 +18 42 58.0 19.6 R H36 – Sandlot Observatory, Scranton MPS 454013
2013 02 06.98435 08 53 29.93 +17 11 52.3   J95 – Great Shefford MPS 454013
2013 02 06.99373 08 53 30.50 +17 10 52.4 20.7 R J95 – Great Shefford MPS 454013
2013 02 08.34177 08 55 20.60 +14 59 55.6 20.9 V G96 – Mt. Lemmon Survey MPS 454013
2013 02 08.34235 08 55 20.63 +14 59 52.3 21.2 V G96 – Mt. Lemmon Survey MPS 454013
2013 02 08.34292 08 55 20.67 +14 59 49.3 21.8 V G96 – Mt. Lemmon Survey MPS 454013